Weather History for Du Bois, PA

Change the Weather History Date:

Monday, February 18, 2013

  Actual Average Record
Temperature  
Mean Temperature 20 °F 27 °F  
Max Temperature 35 °F 35 °F 57 °F (1981)
Min Temperature 5 °F 19 °F -6 °F (1979)
Degree Days  
Heating Degree Days 45 38  
Month to date heating degree days 763 712  
Since 1 July heating degree days 4344 4656  
Cooling Degree Days 0 0  
Month to date cooling degree days 0 0  
Year to date cooling degree days 0 0  
Moisture  
Dew Point 8 °F    
Average Humidity 60    
Maximum Humidity 88    
Minimum Humidity 32    
Precipitation  
Precipitation 0.00 in 0.08 in 0.56 in (1976)
Month to date precipitation 0.25 1.44  
Sea Level Pressure  
Sea Level Pressure 30.18 in    
Wind  
Wind Speed 7 mph (SSW)    
Max Wind Speed 14 mph    
Max Gust Speed 17 mph    
Visibility 10 miles    
Events      
T = Trace of Precipitation, MM = Missing Value Source: NWS Daily Summary

Daily Weather History Graph

Daily Weather History Graph

Search for Another Location

Airport:

Trip Planner

Search our weather history database for the weather conditions in past years. The results will help you decide how hot, cold, wet, or windy it might be!

Date:

Astronomy

Feb. 18, 2013 Rise Set
Actual Time 7:05 AM EST 5:53 PM EST
Civil Twilight 6:37 AM EST 6:21 PM EST
Nautical Twilight 6:05 AM EST 6:54 PM EST
Astronomical Twilight 5:33 AM EST 7:25 PM EST
Moon 11:36 AM EST (2/18) 1:45 AM EST (2/18)
Length of Visible Light 11h 44m
Length of Day
10h 47m
First Quarter, 58% of the Moon is Illuminated
Feb 18
First Quarter
Feb 25
Full
Mar 4
Last Quarter
Mar 11
New
Mar 19
First Quarter

Hourly Weather History & Observations

Time (EST) Temp. Windchill Dew Point Humidity Pressure Visibility Wind Dir Wind Speed Gust Speed Precip Events Conditions
12:56 AM 9.0 °F -5.9 °F 3.0 °F 77% 30.22 in 10.0 mi West 11.5 mph - N/A   Scattered Clouds
1:56 AM 8.1 °F -5.3 °F 3.0 °F 80% 30.24 in 10.0 mi WSW 9.2 mph - N/A   Clear
2:56 AM 7.0 °F -3.3 °F 1.9 °F 80% 30.24 in 10.0 mi West 5.8 mph - N/A   Clear
3:56 AM 6.1 °F -6.8 °F 1.9 °F 83% 30.26 in 10.0 mi WSW 8.1 mph - N/A   Clear
4:56 AM 6.1 °F -4.3 °F 1.9 °F 83% 30.27 in 10.0 mi West 5.8 mph - N/A   Clear
6:56 AM 6.1 °F -2.8 °F 1.9 °F 83% 30.30 in 10.0 mi West 4.6 mph - N/A   Clear
7:56 AM 8.1 °F - 3.9 °F 83% 30.30 in 10.0 mi Calm Calm - N/A   Clear
8:56 AM 12.9 °F 2.6 °F 7.0 °F 77% 30.30 in 10.0 mi WSW 6.9 mph - N/A   Clear
9:56 AM 18.0 °F 6.9 °F 7.0 °F 62% 30.29 in 10.0 mi WSW 9.2 mph - N/A   Clear
10:56 AM 21.9 °F 15.7 °F 9.0 °F 58% 30.26 in 10.0 mi SSW 4.6 mph - N/A   Clear
11:56 AM 24.1 °F 17.0 °F 9.0 °F 53% 30.24 in 10.0 mi SSW 5.8 mph - N/A   Clear
12:56 PM 28.0 °F 20.8 °F 10.0 °F 47% 30.21 in 10.0 mi Variable 6.9 mph - N/A   Clear
1:56 PM 30.0 °F 23.2 °F 8.1 °F 40% 30.18 in 10.0 mi Variable 6.9 mph - N/A   Clear
2:56 PM 33.1 °F 26.1 °F 7.0 °F 34% 30.14 in 10.0 mi South 8.1 mph - N/A   Clear
3:56 PM 35.1 °F 28.6 °F 8.1 °F 33% 30.13 in 10.0 mi South 8.1 mph - N/A   Clear
4:56 PM 35.1 °F 30.1 °F 10.9 °F 37% 30.11 in 10.0 mi SE 5.8 mph - N/A   Overcast
6:56 PM 33.1 °F 26.1 °F 12.0 °F 42% 30.08 in 10.0 mi SE 8.1 mph - N/A   Clear
7:56 PM 32.0 °F 23.6 °F 14.0 °F 48% 30.06 in 10.0 mi SE 10.4 mph - N/A   Clear
9:56 PM 32.0 °F 24.8 °F 15.1 °F 50% 30.00 in 10.0 mi SE 8.1 mph - N/A   Clear
10:56 PM 32.0 °F 23.6 °F 16.0 °F 52% 29.98 in 10.0 mi SE 10.4 mph - N/A   Clear
11:56 PM 30.9 °F 23.5 °F 17.1 °F 57% 29.96 in 10.0 mi SE 8.1 mph - N/A   Clear